{"data":{"norad_id":57079,"epoch":"2026-09-20T05:12:37.036512Z","epoch_age_seconds":145299,"freshness":"FRESH","line1":"1 57079U 23088AH  26263.21709533  .00004007  00000+0  15516-3 0  9999","line2":"2 57079  43.0043  77.2966 0001842 269.4139  90.6501 15.27556453180250","mean_motion":15.27556453,"eccentricity":0.0001842,"inclination_deg":43.0043,"raan_deg":77.2966,"arg_perigee_deg":269.4139,"mean_anomaly_deg":90.6501,"bstar":0.00015516,"rev_number":18025,"period_min":94.268201818136,"perigee_km":481.8557616677,"apogee_km":484.38344860103,"semimajor_km":6861.2566051344,"source":"CELESTRAK","updated_at":"2026-09-21T09:00:33.554246Z"}}